Hourly Data Report for September 27, 2017

All times are specified in Local Standard Time (LST). Add 1 hour to adjust for Daylight Saving Time where and when it is observed.

MIRAMICHI RCS
NEW BRUNSWICK

47°00'34.000" N
65°27'54.000" W
33.00 m
8100989
71744
ACQ

Download Data

Hourly Data (September 2017)
Hourly Data Report for September 27, 2017
Temp Definition
°C
Dew Point Temp Definition
°C
Rel Hum Definition
%
Wind Dir Definition
10's deg

Wind Spd Definition
km/h
Visibility Definition
km
Stn Press Definition
kPa
Hmdx Definition


Wind Chill Definition


Weather Definition


TIME
00:00 13.6 10.0 79 8 14   101.44     LegendNANA
01:00 13.6 9.4 76 8 14   101.41     LegendNANA
02:00 13.3 9.7 79 8 12   101.35     LegendNANA
03:00 13.2 10.1 82 9 10   101.37     LegendNANA
04:00 12.4 10.9 91 9 7   101.30     LegendNANA
05:00 12.4 11.0 91 8 7   101.23     LegendNANA
06:00 12.5 11.4 93 8 7   101.17     LegendNANA
07:00 12.7 11.8 94 8 9   101.13     LegendNANA
08:00 13.1 12.2 94 8 9   101.08     LegendNANA
09:00 13.2 12.5 96 10 10   101.00     LegendNANA
10:00 13.5 12.9 96 9 8   100.95     LegendNANA
11:00 14.2 13.5 96 12 6   100.83     LegendNANA
12:00 14.9 14.1 95 18 5   100.74     LegendNANA
13:00 15.4 14.5 94 21 2   100.67     LegendNANA
14:00 16.0 14.8 93 23 2   100.56     LegendNANA
15:00 16.1 15.3 95 25 7   100.49     LegendNANA
16:00 16.3 15.7 96 22 6   100.38     LegendNANA
17:00 16.3 15.8 97 19 6   100.26     LegendNANA
18:00 16.3 15.8 97 19 5   100.18     LegendNANA
19:00 16.4 15.9 97 18 2   100.14     LegendNANA
20:00 16.4 16.0 97 15 4   100.00     LegendNANA
21:00 16.3 16.0 98 22 5   99.87     LegendNANA
22:00 18.7 17.6 94 23 20   99.85     LegendNANA
23:00 17.1 15.9 93 30 8   100.06     LegendNANA

Notes on Data Quality.

Legend

  • E = Estimated
  • M = Missing
  • NA = Not Available
  • ‡ = Partner data that is not subject to review by the National Climate Archives
Date modified: